User: anonymous
Location: Sherrills_Ford_Terrell
(35.6000°N, 80.9830°W)
Time: 22:36:24
(UTC-04:00)
Language:

CZ-4B R/B - Orbit

View from above orbital plane
View from above orbital plane
View from above satellite
View from above satellite

Ground track
Ground track

The orbit data is extracted from the following two-line orbital elements,

1 29093U 06015B   14209.82902233  .00006644  00000-0  24133-3 0  3530
2 29093 097.5198 289.4731 0092122 114.4753 005.5658 15.24637343455921
Epoch (UTC): 28 July 2014 19:53:47
Eccentricity: 0.0092122
inclination: 97.5198°
perigee height: 428 km
apogee height: 555 km
right ascension of ascending node: 289.4731°
argument of perigee: 114.4753°
revolutions per day: 15.24637343
mean anomaly at epoch: 5.5658°
orbit number at epoch: 45592

The dashed part of the orbit path shows where the satellite is in the earth's shadow,  

DLR